2021-091B (49316 NORAD) Tracking and Keplerian Element Data

This shows tracking and keplerian element data for the satellite.

Feedback or suggestion? Click here.




ElementValue
Catalog49316
Name2021-091B
Epoch Orbit799
Epoch Day340.13691617
Epoch Year2021
RAAN165.1737
Inclination97.4601
Eccentricity0.0017148
Argument of Perigee81.1746
Mean Anonmoly51.9631
Mean Motion15.17630126
Decay Rate8.82E-06
L11 49316U 21091B 21340.13691617 .00000882 00000+0 47048-4 0 9994
L22 49316 97.4601 165.1737 0017148 81.1746 51.9631 15.17630126 7992

Live tracking and technical data element details for 2021-091B (NORAD 49316). 2021-091B can be tracked NOW for your location showing map with azimuth and elevation plus other details from your city location.

Track the satellite on the map from your city or location and see movement details for azimuth, elevation, latitude, longitude, range, height, and movement on the map or in text.







IsCatalogInMostPopularTable: catalog: 49316, numindb: 11
Update: records affected: 1



GetName: 49316 2021-091B

Hit Count: updated at: Mon, 06 Dec 2021 15:41:22 GMT